User: anonymous   Login
Location: Centreville
(38.8333°N, 77.4295°W)
Time: 03:07:58
(UTC-04:00)
Language:

JUGNU - Orbit

View from above orbital plane
View from above orbital plane
View from above satellite
View from above satellite

Ground track
Ground track

The orbit data is extracted from the following two-line orbital elements,

1 37839U 11058B   19293.43504363 +.00000333 +00000-0 +35636-4 0  9993
2 37839 019.9621 304.3802 0018628 251.3142 257.6297 14.12661921414665
Epoch (UTC): 20 October 2019 10:26:27
Eccentricity: 0.0018628
inclination: 19.9621°
perigee height: 837 km
apogee height: 864 km
right ascension of ascending node: 304.3802°
argument of perigee: 251.3142°
revolutions per day: 14.12661921
mean anomaly at epoch: 257.6297°
orbit number at epoch: 41466

The dashed part of the orbit path shows where the satellite is in the earth's shadow,  

DLR